STARLINK-11261 [DTC] (60724 NORAD) Tracking and Keplerian Element Data

This shows tracking and keplerian element data for the satellite.

Feedback or suggestion? Click here.




ElementValue
Catalog60724
NameSTARLINK-11261 [DTC]
Epoch Orbit828
Epoch Day286.83682866
Epoch Year2024
RAAN124.5825
Inclination53.1579
Eccentricity0.0001029
Argument of Perigee114.1211
Mean Anonmoly245.9914
Mean Motion15.6975212
Decay Rate8.62E-05
L11 60724U 24152E 24286.83682866 .00008620 00000+0 75800-4 0 9991
L22 60724 53.1579 124.5825 0001029 114.1211 245.9914 15.69752120 8281



Live tracking and technical data element details for STARLINK-11261 [DTC] (NORAD 60724). STARLINK-11261 [DTC] can be tracked NOW for your location showing map with azimuth and elevation plus other details from your city location.







IsCatalogInMostPopularTable: catalog: 60724, numindb: 8
Update: records affected: 1



GetName: 60724 STARLINK-11261 [DTC]

Hit Count: updated at: Wed, 04 Dec 2024 19:01:13 GMT